VU2YYA-13 Weather Reports


time (UTC)temp
F
wind
direction
speed
knots
gust
knots
rain 1hr
in
rain 24hr
in
rain mn
in
humidity
%
barometer
mb
20260505193920 87 0.0 0.0 0.00 0.00 0.00 52 930.8
20260505192913 87 0.0 0.0 0.00 0.00 0.00 52 930.8
20260505191906 87 0.0 0.0 0.00 0.00 0.00 51 930.7
20260505190900 87 0.0 0.0 0.00 0.00 0.00 51 930.7
20260505185853 87 0.0 0.0 0.00 0.00 0.00 50 930.8
20260505184846 88 0.0 0.0 0.00 0.00 0.00 50 931.0
20260505183839 87 0.0 0.0 0.00 0.00 0.00 50 931.1
20260505182832 88 0.0 0.0 0.00 0.00 0.00 49 931.0
20260505181825 88 0.0 0.0 0.00 0.00 0.00 50 931.2
20260505180818 87 0.0 0.0 0.00 0.00 0.00 50 931.3
20260505175812 87 0.0 0.0 0.00 0.00 0.00 50 931.5
20260505174805 88 0.0 0.0 0.00 0.00 0.00 50 931.7
20260505173758 88 0.0 0.0 0.00 0.00 0.00 50 931.7
20260505172751 88 0.0 0.0 0.00 0.00 0.00 50 932.0
20260505171744 87 0.0 0.0 0.00 0.00 0.00 49 932.1
20260505170738 87 0.0 0.0 0.00 0.00 0.00 49 932.2
20260505165731 87 0.0 0.0 0.00 0.00 0.00 49 932.3
20260505164724 87 0.0 0.0 0.00 0.00 0.00 48 932.3
20260505163717 87 0.0 0.0 0.00 0.00 0.00 48 932.2
20260505162711 87 0.0 0.0 0.00 0.00 0.00 48 932.0
20260505161703 88 0.0 0.0 0.00 0.00 0.00 48 931.8
20260505160656 87 0.0 0.0 0.00 0.00 0.00 49 931.9
20260505152629 87 0.0 0.0 0.00 0.00 0.00 48 932.0
20260505151622 87 0.0 0.0 0.00 0.00 0.00 48 931.8
20260505150616 87 0.0 0.0 0.00 0.00 0.00 48 931.7
20260505140534 88 0.0 0.0 0.00 0.00 0.00 47 931.8
20260505124440 89 0.0 0.0 0.00 0.00 0.00 43 930.9
20260505123433 90 0.0 0.0 0.00 0.00 0.00 44 930.5
20260505122721 90 0.0 0.0 0.00 0.00 0.00 43 930.3
20260505121714 90 0.0 0.0 0.00 0.00 0.00 43 929.5
20260505120707 90 0.0 0.0 0.00 0.00 0.00 45 929.0
20260505115701 90 0.0 0.0 0.00 0.00 0.00 44 929.2
20260505114653 91 0.0 0.0 0.00 0.00 0.00 44 928.7
20260505113646 91 0.0 0.0 0.00 0.00 0.00 40 928.7
20260505112640 91 0.0 0.0 0.00 0.00 0.00 38 928.3
20260505111633 91 0.0 0.0 0.00 0.00 0.00 40 928.0
20260505110626 91 0.0 0.0 0.00 0.00 0.00 41 927.8
20260505101552 91 0.0 0.0 0.00 0.00 0.00 34 927.7
20260505100545 91 0.0 0.0 0.00 0.00 0.00 37 927.7
20260505095538 91 0.0 0.0 0.00 0.00 0.00 38 927.9
20260505094531 91 0.0 0.0 0.00 0.00 0.00 39 928.0
20260505093524 90 0.0 0.0 0.00 0.00 0.00 41 928.2
20260505092517 90 0.0 0.0 0.00 0.00 0.00 41 928.2
20260505091511 91 0.0 0.0 0.00 0.00 0.00 43 928.3
20260505090503 91 0.0 0.0 0.00 0.00 0.00 42 928.5
20260505085457 91 0.0 0.0 0.00 0.00 0.00 42 928.6
20260505084450 91 0.0 0.0 0.00 0.00 0.00 41 928.8
20260505083443 90 0.0 0.0 0.00 0.00 0.00 42 929.0
20260505082436 90 0.0 0.0 0.00 0.00 0.00 42 929.3
20260505081429 90 0.0 0.0 0.00 0.00 0.00 42 929.6
20260505080422 90 0.0 0.0 0.00 0.00 0.00 43 929.8
20260505075415 90 0.0 0.0 0.00 0.00 0.00 43 929.9
20260505074408 90 0.0 0.0 0.00 0.00 0.00 44 930.1
20260505073402 90 0.0 0.0 0.00 0.00 0.00 45 930.3
20260505072355 90 0.0 0.0 0.00 0.00 0.00 46 930.5
20260505071348 90 0.0 0.0 0.00 0.00 0.00 47 930.7
20260505070341 90 0.0 0.0 0.00 0.00 0.00 47 930.9
20260505065334 90 0.0 0.0 0.00 0.00 0.00 46 931.0
20260505064327 90 0.0 0.0 0.00 0.00 0.00 47 931.2
20260505063321 89 0.0 0.0 0.00 0.00 0.00 47 931.3
20260505062314 89 0.0 0.0 0.00 0.00 0.00 50 931.4
20260505061307 89 0.0 0.0 0.00 0.00 0.00 52 931.5
20260505060300 89 0.0 0.0 0.00 0.00 0.00 50 931.6
20260505055253 89 0.0 0.0 0.00 0.00 0.00 50 931.7
20260505054247 89 0.0 0.0 0.00 0.00 0.00 52 931.7
20260505053240 89 0.0 0.0 0.00 0.00 0.00 51 931.9
20260505052233 89 0.0 0.0 0.00 0.00 0.00 50 932.0
20260505051226 89 0.0 0.0 0.00 0.00 0.00 52 932.1
20260505050219 88 0.0 0.0 0.00 0.00 0.00 51 932.2
20260505041145 87 0.0 0.0 0.00 0.00 0.00 54 932.7
20260505040139 87 0.0 0.0 0.00 0.00 0.00 54 932.8
20260505035132 87 0.0 0.0 0.00 0.00 0.00 54 932.8
20260505034125 87 0.0 0.0 0.00 0.00 0.00 54 932.8
20260505033118 87 0.0 0.0 0.00 0.00 0.00 54 932.8
20260505032111 87 0.0 0.0 0.00 0.00 0.00 54 932.8
20260505031104 88 0.0 0.0 0.00 0.00 0.00 53 932.8
20260505030057 88 0.0 0.0 0.00 0.00 0.00 52 932.8
20260505025050 87 0.0 0.0 0.00 0.00 0.00 53 932.8
20260505024044 87 0.0 0.0 0.00 0.00 0.00 52 932.8
20260505023037 87 0.0 0.0 0.00 0.00 0.00 52 932.7
20260505022030 87 0.0 0.0 0.00 0.00 0.00 52 932.7
20260505021024 87 0.0 0.0 0.00 0.00 0.00 51 932.6
20260505020017 87 0.0 0.0 0.00 0.00 0.00 51 932.5
20260505015010 88 0.0 0.0 0.00 0.00 0.00 50 932.5
20260505014003 88 0.0 0.0 0.00 0.00 0.00 50 932.5
20260505012956 88 0.0 0.0 0.00 0.00 0.00 49 932.3
20260505011949 88 0.0 0.0 0.00 0.00 0.00 48 932.2
20260505010943 88 0.0 0.0 0.00 0.00 0.00 48 932.1
20260505005936 88 0.0 0.0 0.00 0.00 0.00 47 932.0
20260505004929 88 0.0 0.0 0.00 0.00 0.00 47 931.9
20260505003922 88 0.0 0.0 0.00 0.00 0.00 47 931.9
20260505002915 88 0.0 0.0 0.00 0.00 0.00 47 931.8
20260505001909 88 0.0 0.0 0.00 0.00 0.00 47 931.8
20260505000902 88 0.0 0.0 0.00 0.00 0.00 47 931.7
20260504235855 88 0.0 0.0 0.00 0.00 0.00 47 931.7
20260504234848 88 0.0 0.0 0.00 0.00 0.00 47 931.7
20260504233841 88 0.0 0.0 0.00 0.00 0.00 47 931.4
20260504232834 88 0.0 0.0 0.00 0.00 0.00 46 931.1
20260504231827 88 0.0 0.0 0.00 0.00 0.00 46 931.0
20260504230820 88 0.0 0.0 0.00 0.00 0.00 46 930.9
20260504225814 88 0.0 0.0 0.00 0.00 0.00 46 930.8
20260504224807 88 0.0 0.0 0.00 0.00 0.00 46 930.7
20260504223800 88 0.0 0.0 0.00 0.00 0.00 46 930.8
20260504222753 88 0.0 0.0 0.00 0.00 0.00 45 930.6
20260504221746 88 0.0 0.0 0.00 0.00 0.00 46 930.6
20260504220739 88 0.0 0.0 0.00 0.00 0.00 45 930.6
20260504215733 88 0.0 0.0 0.00 0.00 0.00 45 930.5
20260504214725 88 0.0 0.0 0.00 0.00 0.00 44 930.5
20260504213719 88 0.0 0.0 0.00 0.00 0.00 44 930.7
20260504212712 88 0.0 0.0 0.00 0.00 0.00 44 930.8
20260504211702 88 0.0 0.0 0.00 0.00 0.00 44 930.8
20260504210655 88 0.0 0.0 0.00 0.00 0.00 44 930.9
20260504205648 89 0.0 0.0 0.00 0.00 0.00 44 930.9
20260504204641 89 0.0 0.0 0.00 0.00 0.00 44 931.0
20260504203634 89 0.0 0.0 0.00 0.00 0.00 44 931.0
20260504202627 89 0.0 0.0 0.00 0.00 0.00 43 931.0
20260504201621 89 0.0 0.0 0.00 0.00 0.00 43 930.9
20260504200614 89 0.0 0.0 0.00 0.00 0.00 43 931.1
20260504195607 89 0.0 0.0 0.00 0.00 0.00 43 931.2
20260504194600 89 0.0 0.0 0.00 0.00 0.00 42 931.0